Regional Weather Roundup
Issued by NWS Little Rock, AR

Home | Current Version | Previous Version | Text Only | Print | Product List | Glossary Off
Versions: 1 2 3 4 5 6 7 8 9 10 11 12 13 14 15 16 17 18 19 20 21 22 23 24 25 26 27 28 29 30 31 32

000
ASUS44 KLZK 110305
RWRLZK

WEATHER ROUNDUP FOR ARKANSAS
NATIONAL WEATHER SERVICE LITTLE ROCK AR
900 PM CST SUN DEC 10 2017

NOTE: "FAIR" INDICATES FEW OR NO CLOUDS BELOW 12,000 FEET WITH NO
SIGNIFICANT WEATHER AND/OR OBSTRUCTIONS TO VISIBILITY.

ARZ001-003-010-029-110400-
NORTHWEST ARKANSAS

CITY           SKY/WX    TMP DP  RH WIND       PRES   REMARKS
FAYETTEVILLE   CLEAR     34  26  72 S3        30.22R
FORT SMITH     CLEAR     45  25  45 W6        30.22S
HARRISON       CLEAR     50  22  33 W8        30.18S
BENTONVILLE    CLEAR     42  23  46 SW3       30.23R
ROGERS         PTCLDY    46  23  40 SW5       30.21R
SILOAM SPGS    CLEAR     47  22  37 SW3       30.22R
HIGHFILL       PTCLDY    42  23  46 SW6       30.21R
SPRINGDALE     CLEAR     41  23  48 CALM      30.22R
$$

ARZ004-005-016-110400-
NORTH CENTRAL ARKANSAS

CITY           SKY/WX    TMP DP  RH WIND       PRES   REMARKS
BATESVILLE     PTCLDY    48  27  44 NW3       30.19R
FLIPPIN        CLEAR     49  23  36 S3        30.19S
MTN HOME       CLEAR     49  26  41 CALM      30.18R
$$

ARZ040-041-110400-
WEST CENTRAL ARKANSAS

CITY           SKY/WX    TMP DP  RH WIND       PRES   REMARKS
MENA           CLEAR     41  28  60 CALM      30.23S
MOUNT IDA      CLEAR     47  27  45 CALM      30.19F
$$

ARZ009-017-025-026-028-110400-
NORTHEAST ARKANSAS

CITY           SKY/WX    TMP DP  RH WIND       PRES   REMARKS
CORNING        FAIR      39  30  70 W8        30.17R
JONESBORO      PTCLDY    47  32  56 W7        30.17R
NEWPORT        CLEAR     44  28  53 W7        30.19R
WALNUT RIDGE   CLEAR     46  28  49 W8        30.17R
BLYTHEVILLE    CLEAR     42  33  70 SW10      30.17R
$$

ARZ022-023-033-042-044-110400-
CENTRAL ARKANSAS

CITY           SKY/WX    TMP DP  RH WIND       PRES   REMARKS
LITTLE ROCK    CLEAR     46  29  51 CALM      30.21S
N LITTLE ROCK    N/A     53  28  38 W3        30.24R
JACKSONVILLE   CLEAR     38  28  67 CALM      30.19S
SEARCY         CLEAR     43  29  57 NE3       30.20R
HOT SPRINGS    CLEAR     51  28  41 NW3       30.22S
RUSSELLVILLE   CLEAR     38  28  67 CALM      30.20S
CLINTON        FAIR      32  28  86 CALM      30.22R
$$

ARZ036-110400-
EAST ARKANSAS

CITY           SKY/WX    TMP DP  RH WIND       PRES   REMARKS
WEST MEMPHIS   CLEAR     40  33  76 S8        30.18S
$$

ARZ050-053-066-070-073-110400-
SOUTHWEST ARKANSAS

CITY           SKY/WX    TMP DP  RH WIND       PRES   REMARKS
ARKADELPHIA    FAIR      38  30  73 CALM      30.23F
CAMDEN         PTCLDY    39  30  70 CALM      30.23F
TEXARKANA      CLEAR     49  29  46 SW8       30.24F
EL DORADO      CLEAR     40  34  79 S3        30.25F
DE QUEEN       CLEAR     37  31  78 CALM      30.22F
$$

ARZ056-057-069-110400-
SOUTHEAST ARKANSAS

CITY           SKY/WX    TMP DP  RH WIND       PRES   REMARKS
PINE BLUFF     CLEAR     49  30  48 SW8       30.22R
STUTTGART      CLEAR     46  32  58 SW7       30.21S
MONTICELLO     CLEAR     53  29  39 SW8       30.23F

$$






USA.gov is the U.S. government's official web portal to all federal, state and local government web resources and services.